Weather History for Winfield, KS

Change the Weather History Date:

Tuesday, November 1, 2011

  Actual Average Record
Temperature  
Mean Temperature 67 °F -  
Max Temperature 77 °F 61 °F 78 °F (2001)
Min Temperature 57 °F 42 °F 28 °F (2006)
Cooling Degree Days 2    
Growing Degree Days 17 (Base 50)    
Moisture  
Dew Point 48 °F    
Average Humidity 54    
Maximum Humidity 65    
Minimum Humidity 39    
Precipitation  
Precipitation 0.00 in - - ()
Sea Level Pressure  
Sea Level Pressure 29.91 in    
Wind  
Wind Speed 17 mph (South)    
Max Wind Speed 28 mph    
Max Gust Speed 37 mph    
Visibility 10 miles    
Events      
Averages and records for this station are not official NWS values.
T = Trace of Precipitation, MM = Missing Value Source: NWS Daily Summary

Daily Weather History Graph

Daily Weather History Graph

Search for Another Location

Airport:

Trip Planner

Search our weather history database for the weather conditions in past years. The results will help you decide how hot, cold, wet, or windy it might be!

Date:

Astronomy

Nov. 01, 2011 Rise Set
Actual Time 7:52 AM CDT 6:30 PM CDT
Civil Twilight 7:25 AM CDT 6:57 PM CDT
Nautical Twilight 6:54 AM CDT 7:28 PM CDT
Astronomical Twilight 6:24 AM CDT 7:58 PM CDT
Moon 1:38 PM CDT (11/1) No Moon Set
Length of Visible Light 11h 32m
Length of Day
10h 38m
Waxing Crescent, 40% of the Moon is Illuminated
Nov 1
Waxing Crescent
Nov 2
First Quarter
Nov 10
Full
Nov 18
Last Quarter
Nov 25
New

Hourly Weather History & Observations

Time (CDT) Temp. Dew Point Humidity Pressure Visibility Wind Dir Wind Speed Gust Speed Precip Events Conditions
12:54 AM 57.9 °F 46.0 °F 65% 29.99 in 10.0 mi South 12.7 mph - N/A   Clear
1:54 AM 57.0 °F 45.0 °F 64% 29.98 in 10.0 mi South 13.8 mph - N/A   Clear
2:54 AM 57.9 °F 45.0 °F 62% 29.97 in 10.0 mi South 15.0 mph - N/A   Clear
3:54 AM 59.0 °F 45.0 °F 60% 29.96 in 10.0 mi South 17.3 mph - N/A   Clear
4:54 AM 57.9 °F 45.0 °F 62% 29.94 in 10.0 mi South 16.1 mph - N/A   Clear
5:54 AM 57.9 °F 45.0 °F 62% 29.93 in 10.0 mi SSE 19.6 mph - N/A   Clear
6:54 AM 59.0 °F 46.0 °F 62% 29.94 in 10.0 mi South 18.4 mph 26.5 mph N/A   Clear
8:54 AM 60.1 °F 46.9 °F 62% 29.94 in 10.0 mi South 21.9 mph 28.8 mph N/A   Clear
9:54 AM 64.0 °F 48.0 °F 56% 29.95 in 10.0 mi South 20.7 mph 29.9 mph N/A   Clear
10:54 AM 68.0 °F 50.0 °F 52% 29.93 in 10.0 mi South 21.9 mph 31.1 mph N/A   Clear
11:54 AM 70.0 °F 50.0 °F 49% 29.92 in 10.0 mi South 24.2 mph 33.4 mph N/A   Clear
12:54 PM 73.9 °F 50.0 °F 43% 29.89 in 9.0 mi SSW 25.3 mph 35.7 mph N/A   Clear
1:54 PM 75.0 °F 50.0 °F 41% 29.87 in 10.0 mi SSW 26.5 mph 36.8 mph N/A   Clear
2:54 PM 77.0 °F 50.0 °F 39% 29.85 in 10.0 mi SSW 27.6 mph 32.2 mph N/A   Clear
3:54 PM 75.9 °F 50.0 °F 40% 29.85 in 10.0 mi SSW 23.0 mph 31.1 mph N/A   Clear
4:54 PM 75.0 °F 50.0 °F 41% 29.85 in 10.0 mi SSW 20.7 mph 31.1 mph N/A   Clear
5:54 PM 73.0 °F 50.0 °F 44% 29.85 in 10.0 mi South 15.0 mph 23.0 mph N/A   Clear
6:54 PM 68.0 °F 50.0 °F 52% 29.87 in 10.0 mi South 9.2 mph - N/A   Clear
7:54 PM 66.9 °F 51.1 °F 57% 29.89 in 10.0 mi South 11.5 mph - N/A   Clear
8:54 PM 64.9 °F 50.0 °F 58% 29.90 in 10.0 mi South 15.0 mph - N/A   Clear
9:54 PM 63.0 °F 50.0 °F 63% 29.91 in 10.0 mi South 15.0 mph - N/A   Clear
11:54 PM 61.0 °F 48.0 °F 62% 29.90 in 10.0 mi SE 8.1 mph - N/A   Clear